{"data":{"norad_id":48662,"intl_designator":"2021-044AA","name":"STARLINK-2726","alt_names":[],"object_type":"PAYLOAD","status":"ACTIVE","operator":null,"country":"US","launch_date":"2021-05-26","launch_site_code":"AFETR","launch_vehicle":null,"mission":null,"orbit_class":"UNKNOWN","rcs_meters":null,"size_class":null,"mass_kg":null,"dimensions":null,"purposes":["comms"],"wikipedia_slug":null,"has_3d_model":false,"image_url":null,"decayed_at":null,"tle_current":{"epoch":"2026-09-19T18:45:31.281984Z","epoch_age_seconds":99414,"freshness":"FRESH","line1":"1 48662U 21044AA  26262.78161206 -.00000848  00000+0 -15553-4 0  9990","line2":"2 48662  53.1583 292.1472 0001369  84.0281 276.0877 15.31706719293531","mean_motion":15.31706719,"eccentricity":0.0001369,"inclination_deg":53.1583,"raan_deg":292.1472,"arg_perigee_deg":84.0281,"mean_anomaly_deg":276.0877,"bstar":-1.5553e-5,"rev_number":29353,"period_min":94.012775561899,"perigee_km":469.7823577908,"apogee_km":471.65757482818,"semimajor_km":6848.8569663095,"source":"CELESTRAK","updated_at":"2026-09-20T09:00:39.143438Z"}}}